Location: Mascot Post Office (historical)
(40.2645°N, 99.5462°W)
Time: 02:35:53
(UTC+00:00)

ATLAS 5 CENTAUR R/B - Pass Details

Date: 07 November 2020
Orbit: 522 x 1136 km, 63.4° (Epoch: 30 November)

Event Time Altitude Azimuth Distance (km) Brightness Sun altitude
Rises 01:53:32 0° 335° (NNW) 3,225 5.6 -27.9°
Reaches altitude 10° 01:56:23 10° 352° (N) 2,408 4.7 -28.4°
Enters shadow 01:57:44 15° 4° (N) 2,115 4.2 -28.7°
